Welcome to the New NWS' Forecast!
Most changes are behind the scenes, but click here for differences you might notice.
Latest weather observations around

Fort Smith, Fort Smith Regional Airport (KFSM)

Using English Units (Switch to International System of Units)
Date/ Time (CDT) Wind (mph) Vis. (mi) Weather Sky Cond. Temp (°F) Rel. Humidity Wind Chill (°F) Heat Index (°F) Pressure Precip. (in)
Air Dwpt 6 hour Altimeter (inHg) Sea level (inHg) 1 hr 3 hr 6 hr
Max Min
Oct 20 08:53 E 6 10 Clear CLR 60 56     86%     30.17 30.16      
Oct 20 07:53 ENE 3 10 Clear CLR 57 54     89%     30.16 30.15      
Oct 20 06:53 E 6 10 Clear CLR 56 54     93%     30.14 30.13      
Oct 20 05:53 NNE 7 10 Clear CLR 56 54     93%     30.15 30.14      
Oct 20 04:53 NE 7 10 Clear CLR 56 54     93%     30.15 30.14      
Oct 20 03:53 ENE 8 10 Clear CLR 55 53     93%     30.15 30.13      
Oct 20 02:53 ENE 6 10 Clear CLR 56 53     90%     30.15 30.14      
Oct 20 01:53 E 3 10 Clear CLR 58 54     87%     30.16 30.14      
Oct 20 00:53 N 3 10 Clear CLR 60 53     78%     30.16 30.14      
Oct 19 23:53 E 5 10 Clear CLR 63 52     67%     30.15 30.14      
Oct 19 22:53 E 5 10 Clear CLR 63 54     72%     30.14 30.14      
Oct 19 21:53 E 7 10 Clear CLR 63 54     72%     30.13 30.12      
Oct 19 20:53 E 3 10 Clear   65 55     70%     30.12 30.11      
Oct 19 19:53 ESE 7 10 Clear CLR 70 56     61%     30.12 30.11      
Oct 19 18:53 Calm 10 Clear CLR 73 55     53%   73 30.11 30.1      
Oct 19 17:53 ESE 5 10 Clear CLR 78 52     40%   77 30.11 30.1      
Oct 19 16:53 ESE 9 10 Clear CLR 81 50     34%   80 30.12 30.1      
Oct 19 15:53 S 5 10 Clear CLR 80 52     38%   80 30.13 30.11      
Oct 19 14:53 Calm 10 Clear CLR 79 52     39%   78 30.14 30.13      
Oct 19 12:53 Calm 10 Clear CLR 78 54     43%   78 30.19 30.18      
Oct 19 11:53 5 10 Clear CLR 74 56     53%   74 30.21 30.2      
Oct 19 10:53 E 3 10 Clear CLR 67 56     68%     30.22 30.22      
Oct 19 09:53 ENE 7 10 Clear CLR 62 55     78%     30.23 30.22      
Oct 19 08:53 ENE 6 10 Clear   57 54     89%     30.21 30.2      
Oct 19 07:53 ENE 5 10 Clear CLR 54 51     90%     30.19 30.19      
Oct 19 06:53 ENE 3 10 Clear CLR 53 51     93%     30.18 30.18      
Oct 19 05:53 ENE 3 10 Clear CLR 54 52     93%     30.17 30.16      
Oct 19 04:53 ENE 3 10 Clear CLR 54 52     93%     30.15 30.14      
Oct 19 03:53 NE 3 10 Clear CLR 55 52     89%     30.14 30.13      
Oct 19 02:53 NE 5 10 Clear CLR 55 52     89%     30.14 30.13      
Oct 19 01:53 NE 3 10 Clear CLR 57 52     83%     30.13 30.12      
Oct 19 00:53 NE 6 10 Clear CLR 56 51     84%     30.12 30.11      
Oct 18 23:53 ENE 3 10 Clear CLR 57 52     83%     30.13 30.12      
Oct 18 22:53 NNE 5 10 Clear CLR 57 52     83%     30.13 30.12      
Oct 18 21:53 E 3 10 Clear CLR 62 54     75%     30.12 30.11      
Oct 18 20:53 Calm 10 Clear CLR 65 51     61%     30.11 30.11      
Oct 18 19:53 SE 6 10 Clear CLR 69 51     53%     30.1 30.09      
Oct 18 18:53 E 6 10 Clear   71 51     49%   70 30.09 30.08      
Oct 18 17:53 ESE 5 10 Clear CLR 79 45     30%   78 30.09 30.08      
Oct 18 16:53 SSE 7 10 Clear CLR 80 45     29%   79 30.1 30.09      
Oct 18 15:53 Calm 10 Clear CLR 79 45     30%   78 30.09 30.08      
Oct 18 14:53 ESE 5 10 Clear CLR 77 44     31%   76 30.11 30.1      
Oct 18 13:53 Calm 10 Clear CLR 74 44     34%   73 30.14 30.13      
Oct 18 12:53 Calm 10 Clear CLR 72 45     38%   71 30.17 30.16      
Oct 18 11:53 E 5 10 Clear CLR 69 47     45%     30.19 30.18      
Oct 18 10:53 ENE 5 10 Clear CLR 63 49     60%     30.2 30.19      
Oct 18 09:53 ENE 6 10 Clear CLR 57 49     74%     30.2 30.19      
Oct 18 08:53 ENE 6 10 Clear CLR 51 47     86%     30.19 30.19      
Oct 18 07:53 NE 5 10 Clear CLR 47 45     93% 45   30.18 30.17      
Oct 18 06:53 NE 7 10 Clear CLR 46 45     96% 42   30.18 30.17      
Oct 18 05:53 NE 6 10 Clear CLR 47 45     93% 44   30.18 30.17      
Oct 18 04:53 NE 3 10 Clear CLR 49 46     90% 48   30.17 30.16      
Oct 18 03:53 ENE 5 10 Clear CLR 49 46     90% 47   30.17 30.17      
Oct 18 02:53 NE 5 10 Clear CLR 49 46     90% 47   30.18 30.17      
Oct 18 01:53 ENE 3 10 Clear CLR 51 47     86%     30.18 30.18      
Oct 18 00:53 NE 3 10 Clear CLR 52 47     83%     30.18 30.18      
Oct 17 23:53 ENE 3 10 Clear CLR 52 48     86%     30.18 30.17      
Oct 17 22:53 ENE 7 10 Clear CLR 54 47     77%     30.19 30.18      
Oct 17 21:53 ENE 5 10 Clear CLR 57 45     64%     30.18 30.17      
Oct 17 20:53 Calm 10 Clear CLR 59 45     60%     30.17 30.16      
Oct 17 19:53 ENE 3 10 Clear CLR 63 46     54%     30.16 30.16      
Oct 17 18:53 ENE 6 10 Clear CLR 64 46     52%     30.16 30.15      
Oct 17 17:53 SSE 5 10 Clear CLR 72 39     30%   70 30.16 30.15      
Oct 17 16:53 Calm 10 Clear CLR 74 40     29%   72 30.17 30.16      
Oct 17 15:53 SE 3 10 Clear CLR 72 40     31%   70 30.19 30.18      
Oct 17 14:53 NE 5 10 Clear CLR 72 39     30%   70 30.21 30.21      
Oct 17 13:53 SSE 5 10 Clear CLR 70 39     32%     30.25 30.24      
Oct 17 12:53 SE 5 10 Clear CLR 68 39     35%     30.29 30.29      
Oct 17 11:53 6 10 Clear CLR 67 41     39%     30.33 30.32      
Oct 17 10:53 ESE 9 10 Clear CLR 62 43     50%     30.34 30.34      
Oct 17 09:53 ENE 7 10 Clear CLR 55 48     77%     30.35 30.34      
Oct 17 08:53 ENE 7 10 Clear CLR 50 48     93% 47   30.34 30.33      
Jun 11 22:53 ENE 6 10 Clear CLR 74 63     69%   74 29.94 29.93      
Jun 11 20:53 Calm 10 Clear CLR 82 61     49%   83 29.91 29.89      
Jun 11 14:53 S 9 10 Partly Cloudy SCT060 88 61     40%   88 29.96 29.94      
Jun 11 08:53 E 6 10 Clear CLR 78 65     64%   79 29.97 29.95      
Jun 10 15:53 SSE 11 10 Cloudy OVC055 85 63     48%   86 29.89 29.87      
Jun 09 01:53 NE 5 10 Clear CLR 64 60     87%     29.92 29.91      
Jun 08 11:53 S 5 10 Clear CLR 79 51     38%   78 30.04 30.02      
Jun 07 08:53 ENE 7 10 Partly Cloudy SCT055 72 55     55%   71 30.02 30      
Jun 06 03:22 Calm 3 Fog/Mist CLR 69 67     93%     29.84